This is the latest recevied weather packets stored in our database for station/object KD0RIH. If no packets are shown the sender has not sent any weather packets the latest 10 day(s).
| Time | Temp. | Humidity | Pressure | Rain* | Wind** | Luminosity | Snow |
|---|---|---|---|---|---|---|---|
| 1777214174 | 19.44° C | 54% | 1012.2 hPa | 0 mm | - | 576 W/m² | - |
| 1777213868 | 19.44° C | 55% | 1012.1 hPa | 0 mm | - | 555 W/m² | - |
| 1777213563 | 18.89° C | 55% | 1012.1 hPa | 0 mm | - | 535 W/m² | - |
| 1777213260 | 18.89° C | 57% | 1012.3 hPa | 0 mm | - | 514 W/m² | - |
| 1777212956 | 18.33° C | 56% | 1012.3 hPa | 0 mm | - | 495 W/m² | - |
| 1777212655 | 18.33° C | 56% | 1012.3 hPa | 0 mm | - | 476 W/m² | - |
| 1777212353 | 18.33° C | 57% | 1012.2 hPa | 0 mm | - | 459 W/m² | - |
| 1777212049 | 17.78° C | 58% | 1012.3 hPa | 0 mm | - | 442 W/m² | - |
| 1777211745 | 17.78° C | 59% | 1012.1 hPa | 0 mm | - | 415 W/m² | - |
| 1777211443 | 17.78° C | 59% | 1012.5 hPa | 0 mm | - | 214 W/m² | - |
| 1777211139 | 17.22° C | 61% | 1012.4 hPa | 0 mm | - | 380 W/m² | - |
| 1777210836 | 16.67° C | 61% | 1012.4 hPa | 0 mm | - | 321 W/m² | - |
| 1777210534 | 16.67° C | 61% | 1012.5 hPa | 0 mm | - | 352 W/m² | - |
| 1777210233 | 16.67° C | 62% | 1012.4 hPa | 0 mm | - | 315 W/m² | - |
| 1777209928 | 16.11° C | 63% | 1012.5 hPa | 0 mm | - | 302 W/m² | - |
| 1777209623 | 16.11° C | 63% | 1012.6 hPa | 0 mm | - | 265 W/m² | - |
| 1777209320 | 15.56° C | 64% | 1012.5 hPa | 0 mm | - | 227 W/m² | - |
| 1777209016 | 15.56° C | 64% | 1012.7 hPa | 0 mm | - | 221 W/m² | - |
| 1777208713 | 15.56° C | 64% | 1012.6 hPa | 0 mm | - | 189 W/m² | - |
| 1777208410 | 15.56° C | 63% | 1012.4 hPa | 0 mm | - | 164 W/m² | - |
| 1777208106 | 15.56° C | 63% | 1012.6 hPa | 0 mm | - | 193 W/m² | - |
| 1777207801 | 15.56° C | 63% | 1012.6 hPa | 0 mm | - | 83 W/m² | - |
| 1777207501 | 15° C | 64% | 1012.4 hPa | 0 mm | - | 142 W/m² | - |
| 1777207200 | 15° C | 64% | 1012.5 hPa | 0 mm | - | 146 W/m² | - |
| 1777206896 | 15° C | 64% | 1012.3 hPa | 0 mm | - | 103 W/m² | - |
* Rain latest hour (hover to see other rain measurements)
** Current wind speed in m/s (hover to see current wind gust speed)